Temp
23 23 23 23 23 23 23 23 23 23 24 24 24 24 24 24 24 24 24 24 24 24 24 24 24 24 24 24 24 24 24 24 24 24 24 24 24 24 24 23 23 23 24 24 24 24 24 24 24 24 24 24 25 25 26 26 26 26 26 26 26 26 25 25 26 27 27 27 27 27 27 26 26 26 26 26 26 26 26 25 25 25 25 25 25
23 23 23 23 23 24 24 23 23 23 24 24 24 24 24 24 24 24 24 24 24 24 24 24 24 24 24 24 24 24 24 24 24 24 24 24 24 24 24 24 23 23 24 24 24 24 24 24 24 25 25 25 25 25 26 26 26 26 26 26 26 26 25 25 26 26 27 27 27 27 27 26 26 26 25 25 25 25 25 25 25 25 24 25 25
23 23 23 23 23 23 23 24 23 23 24 24 24 24 24 24 24 24 24 24 24 24 24 24 24 24 24 24 24 24 24 24 24 24 24 24 24 24 24 24 24 24 24 24 24 24 24 24 25 25 25 25 25 25 26 26 26 26 26 26 26 26 26 25 25 26 26 27 26 27 27 26 26 26 25 25 25 25 25 25 25 25 24 24 25
23 23 23 23 23 23 23 24 24 24 24 24 24 24 24 24 24 24 24 24 24 24 24 24 24 24 24 24 24 24 24 24 24 24 24 24 24 24 24 24 24 24 24 24 24 24 24 25 25 25 25 25 25 25 26 26 26 26 26 26 26 26 26 26 26 25 26 26 26 26 26 26 25 25 25 25 25 25 25 25 25 24 24 24 25
23 23 23 23 23 23 23 24 24 24 24 24 24 24 25 24 24 24 24 24 24 24 24 24 24 24 24 24 24 24 24 24 24 24 24 24 24 24 24 24 24 24 24 24 24 24 24 25 25 25 25 25 25 25 26 26 26 26 26 26 26 26 26 26 26 25 25 26 26 26 26 26 25 25 25 25 25 25 25 24 24 24 24 24 24
23 23 23 23 23 23 23 24 24 24 24 24 24 25 25 24 24 24 24 24 24 24 24 24 24 24 24 24 24 24 24 24 24 24 24 24 24 24 24 24 24 24 24 24 24 24 24 25 25 25 25 25 25 25 25 25 26 26 26 26 26 26 26 26 26 26 25 25 26 26 26 26 25 25 25 25 25 25 24 24 24 24 23 23 24
23 23 23 23 23 23 23 23 24 24 24 24 24 24 25 25 25 24 24 24 24 24 24 24 24 24 24 24 24 24 24 24 24 24 24 24 24 24 24 24 24 24 24 24 25 25 25 25 25 25 25 25 25 25 25 25 26 26 26 26 26 26 26 26 26 26 25 26 26 26 26 25 25 25 25 24 24 24 24 24 24 24 23 23 23
23 23 23 23 23 23 23 23 23 24 24 24 24 24 24 24 24 24 24 24 24 25 25 25 25 24 24 24 24 24 24 25 25 25 25 24 24 24 24 24 24 24 24 25 25 25 25 25 25 25 25 25 25 25 25 25 26 26 26 27 27 27 26 26 26 25 25 26 26 26 26 25 25 25 25 24 24 24 23 23 24 24 23 23 23
23 23 22 23 23 24 24 23 23 23 23 24 24 24 24 24 24 24 24 24 24 25 25 25 25 25 24 24 24 25 24 24 25 25 25 25 24 24 24 24 24 24 24 25 25 25 25 25 25 25 25 25 25 25 25 26 26 26 26 26 26 27 26 25 25 25 25 26 26 26 26 26 26 25 25 25 24 24 23 23 23 23 23 23 23
23 23 22 23 23 23 24 24 24 24 23 24 24 24 24 24 24 24 24 24 24 24 24 24 25 25 25 25 25 25 25 25 25 25 25 25 25 24 24 24 25 25 25 25 25 25 25 25 25 25 25 25 25 25 26 26 26 26 26 26 26 26 26 25 25 25 25 25 26 26 26 26 26 26 25 25 24 23 23 23 23 23 22 23 23
23 23 23 23 23 23 23 23 23 23 23 23 24 24 24 24 24 24 24 24 24 24 24 24 24 25 25 25 25 25 25 25 25 26 25 25 25 24 24 24 24 24 24 24 25 25 25 25 25 25 25 25 25 25 26 26 26 26 26 26 26 26 26 25 25 25 25 25 26 26 26 26 26 25 25 25 24 23 23 23 22 22 22 23 23
23 23 23 23 22 22 22 22 22 23 23 23 23 24 24 24 24 24 24 24 24 24 24 24 24 24 25 25 25 25 25 25 26 26 26 26 25 25 24 24 24 24 24 24 24 25 25 25 25 26 25 25 25 25 26 26 26 26 26 26 26 26 26 25 25 25 25 25 25 26 26 25 25 24 24 24 23 22 23 22 22 22 22 22 22
23 23 22 22 22 22 22 22 22 22 22 23 23 23 23 23 24 24 24 24 24 24 24 24 24 24 24 25 25 25 25 25 26 26 26 26 25 25 25 24 24 24 24 24 24 24 24 25 25 25 25 25 25 25 25 25 26 25 25 25 25 25 25 25 25 25 24 24 24 25 24 24 24 24 23 22 22 22 22 22 22 22 22 22 22
22 22 22 22 22 22 22 22 22 22 22 22 22 22 23 23 23 24 24 24 24 24 24 24 24 24 24 24 25 25 25 25 25 25 25 25 25 25 25 25 24 24 24 24 24 24 24 24 24 25 25 25 25 25 25 25 25 25 25 25 24 24 24 24 24 24 24 23 23 23 23 22 22 22 21 21 21 21 21 21 21 21 21 21 21
22 22 22 22 22 22 22 22 22 22 22 21 22 22 22 22 23 23 23 23 24 24 24 24 24 24 24 24 24 24 24 25 25 25 25 25 25 24 24 25 24 24 24 24 24 24 24 24 24 24 24 24 25 25 24 24 25 24 24 24 24 23 23 23 23 23 23 22 22 22 21 21 21 21 20 20 21 21 21 21 20 20 21 21 22
22 21 21 21 22 22 22 22 22 22 21 21 22 22 22 22 22 22 22 22 22 23 23 23 23 23 23 24 24 23 24 25 25 24 24 24 24 23 23 23 24 24 24 24 24 24 24 24 24 24 24 24 25 25 25 24 24 24 24 24 23 23 22 23 23 22 22 22 21 21 21 21 21 20 20 20 20 20 20 21 21 21 21 21 22
21 21 21 21 22 22 21 22 22 22 21 22 22 22 22 22 22 22 21 21 21 22 22 22 22 22 22 22 22 22 23 24 24 24 24 23 23 23 23 23 23 23 23 23 23 23 23 24 24 24 24 24 25 25 24 24 24 23 23 23 23 23 22 21 21 21 21 21 21 20 20 20 20 20 20 20 20 20 21 21 21 21 21 21 22
21 21 20 21 21 20 20 21 21 22 22 22 22 22 22 23 23 23 22 21 20 21 21 21 22 23 22 22 22 22 22 23 23 23 23 23 23 22 22 22 22 22 23 23 23 22 22 23 23 23 23 23 24 24 23 23 23 23 23 23 23 23 22 20 19 20 20 19 20 19 19 20 20 20 20 20 20 21 20 20 20 20 21 21 21
20 20 19 19 21 21 20 19 20 20 20 21 21 21 21 21 22 21 21 20 20 19 20 21 21 21 21 21 21 20 20 20 21 21 21 21 22 21 21 21 22 22 22 22 22 21 21 21 22 21 21 22 22 22 22 22 22 22 22 22 23 23 21 20 19 19 19 19 19 19 19 19 19 20 20 20 20 20 20 19 19 19 20 20 19
19 19 18 18 20 21 20 19 19 20 19 19 20 20 20 20 20 19 19 20 20 19 19 20 20 20 19 19 19 19 19 18 19 19 19 20 20 20 20 20 21 21 21 22 21 20 20 20 20 20 20 20 20 20 21 21 21 20 21 21 22 21 20 19 18 19 18 18 18 18 18 18 19 19 20 19 19 19 18 18 18 18 18 19 18
19 19 18 18 19 19 19 19 19 19 19 19 19 19 19 19 19 19 19 19 19 18 19 19 19 19 18 18 18 18 17 17 17 18 18 18 19 20 19 20 20 20 20 20 20 19 19 19 18 18 18 18 18 18 18 19 19 19 19 20 20 19 18 18 17 18 18 18 18 18 18 18 18 18 18 18 17 17 17 17 17 17 17 18 18
18 18 18 19 19 19 19 19 19 19 19 19 19 19 19 19 19 19 19 19 19 18 18 18 18 17 17 17 17 17 17 17 17 17 17 17 18 18 19 19 19 19 19 19 18 18 17 17 17 17 17 17 17 16 17 17 17 17 18 18 18 18 17 17 17 17 17 17 17 17 18 17 17 17 17 17 17 17 16 16 16 16 16 16 16
18 18 18 18 18 18 18 18 18 18 18 19 18 18 18 19 19 19 19 19 18 18 17 17 17 16 16 16 16 16 16 16 17 17 17 17 17 17 17 17 18 18 18 17 17 17 16 16 16 17 16 16 16 16 16 16 16 17 17 17 18 18 17 17 17 16 16 17 17 17 17 17 17 17 17 17 16 16 15 15 15 15 15 15 15
18 17 17 18 18 18 18 18 18 18 18 18 18 18 18 18 18 18 18 18 18 17 17 16 16 16 16 15 15 16 16 16 16 16 16 16 16 16 16 16 17 18 18 17 17 17 17 16 16 16 16 16 15 15 16 16 16 17 17 17 17 17 17 17 16 16 16 16 16 16 16 16 17 16 16 16 16 15 15 15 15 14 14 14 14
17 17 17 17 18 18 18 18 18 18 18 18 18 18 18 18 18 18 18 17 17 16 16 16 16 15 15 15 15 15 16 16 16 16 16 16 16 16 16 16 16 17 17 17 17 17 17 17 17 17 16 16 16 16 16 16 16 16 16 16 16 17 17 17 16 16 16 16 16 16 16 16 15 15 15 15 15 15 15 15 15 15 14 14 14
17 17 18 18 18 18 18 18 18 18 18 18 18 17 18 18 18 17 17 17 16 16 16 15 15 15 15 15 15 15 16 16 16 16 16 16 16 16 16 16 17 17 17 17 17 17 17 17 17 17 16 16 16 16 15 15 16 16 16 16 16 16 16 16 16 16 16 16 16 15 15 15 15 15 15 15 14 14 15 15 15 15 15 14 14
17 17 18 18 18 18 18 18 18 18 18 18 18 18 18 18 17 17 16 16 17 16 16 15 15 15 15 15 15 15 15 15 15 15 15 16 16 16 16 16 16 17 17 17 17 17 17 17 17 17 17 16 16 15 15 15 15 15 15 16 16 16 16 16 16 16 16 15 15 15 15 14 14 14 14 14 14 14 14 14 14 15 14 14 14
17 17 18 18 18 18 18 18 18 18 18 18 18 18 18 18 17 17 17 17 17 17 16 16 16 16 16 16 15 15 15 15 15 15 15 15 15 15 16 16 16 17 17 17 16 16 16 16 16 16 16 15 15 15 15 15 15 16 16 16 16 16 16 16 16 16 15 15 15 14 14 14 14 13 13 13 13 13 13 13 13 14 13 14 14
18 17 18 18 18 18 18 18 18 18 18 18 18 18 17 18 18 17 17 17 17 17 17 17 17 17 16 16 15 15 15 15 15 15 15 15 15 15 15 16 16 16 17 17 15 15 15 15 15 15 15 15 15 15 15 15 15 16 16 16 16 16 15 15 15 15 15 15 14 14 14 13 13 13 13 13 13 12 12 12 12 13 13 13 14
17 17 17 17 17 18 18 18 18 18 18 18 18 17 17 17 17 17 17 17 17 17 17 17 17 17 16 16 16 15 15 15 15 15 15 15 15 15 15 15 15 16 16 16 15 15 15 15 15 15 15 15 15 16 16 16 16 16 16 16 15 15 15 15 15 14 14 14 14 14 14 13 13 13 14 13 13 12 12 12 12 12 12 13 13
17 17 17 17 17 18 18 18 18 18 18 18 18 18 17 17 17 17 17 17 17 17 17 16 16 16 16 16 16 16 16 16 15 15 15 15 15 15 15 15 15 16 16 16 15 15 15 16 15 15 15 16 16 16 16 16 16 16 16 16 15 15 15 15 14 14 14 14 14 14 14 13 13 13 13 13 13 12 12 12 12 12 12 12 13
17 17 17 17 17 18 18 18 18 18 18 18 18 18 17 17 16 16 17 17 17 16 16 16 16 16 16 16 16 16 16 15 15 15 15 15 15 15 15 15 16 16 16 15 15 15 15 15 15 15 16 16 15 15 15 16 16 16 16 16 15 14 14 14 14 14 14 14 13 13 13 13 13 13 12 12 12 12 12 12 12 12 12 12 12
17 17 17 17 17 17 18 18 18 18 18 18 18 18 17 17 16 15 15 16 16 16 16 16 16 16 16 16 16 16 15 15 15 15 15 16 16 16 16 16 16 16 15 15 15 15 15 15 15 15 15 15 15 15 15 15 15 15 15 15 14 14 13 14 13 13 13 13 13 12 12 12 12 12 12 11 11 11 11 11 11 11 11 11 11
17 17 17 17 17 17 17 17 17 17 17 17 17 17 17 17 16 15 15 15 15 15 15 15 15 15 16 15 15 15 15 15 15 15 15 16 16 16 16 16 15 15 15 15 15 15 15 15 15 14 14 14 15 15 14 14 14 14 14 14 14 13 13 13 12 12 12 12 11 11 11 11 11 11 11 10 10 10 10 10 10 10 10 11 11
17 17 17 17 17 17 17 17 17 17 17 17 17 17 17 17 17 16 16 16 16 15 14 14 15 15 15 15 15 15 15 15 15 15 15 16 16 16 16 16 15 15 15 15 15 15 14 14 14 14 14 14 14 14 14 14 14 14 13 13 13 12 12 12 12 11 11 11 10 10 10 9 9 10 10 9 9 9 9 9 9 9 9 9 9
16 17 17 17 17 17 17 17 17 17 17 17 17 17 17 17 17 17 17 17 16 16 15 14 15 15 15 15 15 15 15 16 15 15 15 15 15 16 16 15 15 15 15 15 15 15 14 14 14 14 14 14 14 13 13 13 13 13 13 12 12 12 11 11 11 11 10 10 9 9 8 8 8 8 8 8 8 8 8 9 8 8 8 8 8
16 16 16 17 17 17 17 17 17 17 17 17 16 16 16 16 16 16 17 16 16 16 15 15 15 15 15 15 15 15 15 15 15 15 15 15 15 15 15 15 15 14 14 14 14 14 14 13 13 13 13 13 13 12 12 12 12 12 12 11 11 11 11 10 10 10 9 9 9 8 8 7 7 7 8 8 8 8 8 8 8 8 8 7 7
16 16 16 16 17 17 17 17 17 17 17 17 16 16 17 16 16 16 16 16 16 16 16 15 15 15 15 15 15 15 15 15 15 15 15 15 15 15 14 14 14 14 13 13 13 13 13 13 12 12 12 12 12 12 11 11 11 11 11 10 10 10 10 9 9 9 8 8 8 7 7 7 6 6 6 7 7 7 7 7 7 7 7 7 7
15 16 16 16 16 16 16 16 16 16 16 16 16 16 17 17 16 16 16 16 16 16 16 16 16 15 15 15 15 15 15 15 15 15 14 14 14 14 14 14 13 13 13 13 13 12 12 12 12 12 11 11 11 11 10 10 10 10 10 10 9 9 9 8 8 7 7 7 6 6 6 6 6 5 5 6 6 6 6 6 6 6 6 7 7
15 15 15 16 16 16 16 16 16 16 16 16 16 16 16 16 16 16 16 16 16 16 16 16 16 15 15 15 15 15 15 15 15 15 14 14 14 14 14 13 13 13 12 12 12 12 11 11 11 11 11 10 10 10 10 10 9 9 9 9 9 8 8 7 7 7 6 6 6 5 5 5 5 5 5 5 5 5 5 5 6 5 6 6 6
15 15 15 15 15 15 15 16 16 16 16 16 16 16 16 16 16 16 16 16 16 16 16 16 16 15 15 15 15 15 15 15 15 14 14 14 14 13 13 13 13 12 12 12 11 11 11 11 10 10 10 10 10 9 9 9 9 9 9 8 8 8 7 7 6 6 6 6 5 5 5 5 5 5 5 4 4 5 5 5 5 5 5 5 6
15 15 15 15 15 15 16 16 15 15 15 15 15 15 16 16 16 16 16 16 16 16 16 16 15 15 15 15 15 14 14 15 14 14 14 14 13 13 13 12 12 12 12 11 11 11 10 10 10 10 10 9 9 9 9 9 9 9 9 8 8 8 7 7 6 6 5 5 5 5 5 5 5 5 5 4 4 5 5 4 5 5 5 5 6
15 15 15 15 15 15 15 15 15 15 15 15 15 15 15 15 15 15 16 16 16 16 16 16 15 16 15 15 14 14 14 14 14 14 13 13 13 13 12 12 12 11 11 11 10 10 10 10 10 9 9 9 9 9 9 8 8 8 8 8 7 7 7 7 6 6 6 5 5 5 5 5 5 5 5 5 5 5 5 5 5 5 6 6 6
14 15 15 15 15 15 15 15 15 15 15 15 15 15 15 15 15 15 16 16 16 16 16 15 15 15 15 15 14 13 13 13 13 13 13 13 13 12 12 12 11 11 11 10 10 10 9 9 9 9 9 8 8 8 8 8 8 7 7 7 7 7 7 6 6 6 5 5 5 5 5 5 5 5 5 5 5 5 5 5 5 5 5 6 6
14 14 14 15 15 15 14 14 14 14 14 14 15 15 15 15 15 15 15 16 16 16 15 15 14 14 14 14 13 13 13 13 13 13 13 13 12 12 12 12 11 11 10 10 9 9 9 9 9 8 8 8 8 7 7 7 7 7 7 7 7 7 6 6 5 5 5 5 5 5 5 5 5 5 4 4 5 5 5 5 5 5 5 5 5
14 14 14 14 14 14 14 14 14 14 14 14 14 15 15 15 15 15 15 15 15 15 15 15 14 14 14 13 13 13 13 13 13 13 12 12 12 12 11 11 10 10 10 9 9 9 9 8 8 8 8 8 7 7 7 7 7 7 6 6 6 6 6 5 5 5 4 4 4 4 4 4 4 4 4 4 4 4 4 4 4 5 5 5 5
14 14 14 14 14 14 14 14 14 14 14 14 14 14 14 14 14 14 14 14 14 14 14 14 14 14 14 13 13 12 12 12 12 12 12 12 11 11 11 10 10 9 9 9 9 8 8 8 8 8 8 7 7 7 7 7 7 7 6 6 6 6 5 5 4 4 4 4 4 4 4 4 4 4 4 3 4 4 4 4 4 4 4 4 4
14 13 13 14 13 13 13 13 13 13 13 13 13 13 13 13 14 14 14 13 13 13 13 14 14 14 13 13 12 12 12 12 12 12 12 11 11 11 10 10 10 9 9 9 9 8 8 8 7 7 7 7 7 6 6 6 6 6 6 5 5 5 4 4 4 4 4 3 3 3 3 3 3 3 3 3 3 3 3 4 4 4 4 4 4
13 13 13 13 13 13 12 13 13 13 13 13 13 13 13 13 13 13 13 13 13 13 13 13 13 13 13 12 12 12 12 12 12 12 11 11 11 10 10 10 10 9 9 9 8 8 8 7 7 7 7 6 6 6 6 6 6 6 5 5 5 4 4 4 4 3 3 3 3 3 3 3 3 3 3 3 3 3 3 3 3 3 4 4 4
12 12 12 12 12 12 12 12 12 12 12 12 12 13 13 13 13 12 12 12 12 12 12 12 12 12 12 12 12 12 12 12 12 11 11 11 10 10 10 9 9 9 8 8 8 8 7 7 7 6 6 6 6 6 6 6 6 6 5 5 4 4 4 4 3 3 3 3 3 3 3 3 3 3 3 3 3 3 3 3 3 3 3 3 4
11 11 11 11 11 12 12 12 12 12 12 12 12 12 13 13 13 13 12 12 12 12 12 12 12 12 11 12 12 12 12 11 11 11 10 10 10 10 9 9 9 8 8 8 8 7 7 7 7 6 6 6 6 6 6 6 6 5 5 4 4 4 4 4 3 3 3 3 3 3 3 3 2 2 2 2 2 2 2 2 2 2 3 3 3
Height
838 840 842 843 845 847 849 850 852 854 855 856 857 858 859 860 861 862 862 863 864 865 866 866 867 868 869 869 869 870 870 871 872 872 872 873 873 873 873 873 873 873 873 873 873 873 873 873 873 872 872 872 872 872 871 871 871 870 870 870 869 869 868 868 867 866 865 865 864 864 863 863 862 861 860 859 858 857 855 854 852 851 850 849 848
837 838 840 841 843 844 847 848 850 852 853 854 855 857 858 858 859 860 861 862 863 863 864 865 866 866 867 868 868 869 869 869 870 871 871 871 872 872 872 872 872 872 872 872 872 872 872 871 871 871 871 871 871 871 870 870 869 869 869 869 868 868 868 867 867 866 865 864 864 863 863 862 862 861 860 859 858 856 855 854 852 851 850 848 847
835 837 838 840 841 843 845 846 848 849 851 852 853 855 856 857 858 859 860 861 861 862 863 863 864 865 865 866 866 867 868 868 869 869 869 870 870 871 871 871 871 871 871 871 871 871 871 870 870 870 870 870 869 869 869 869 869 868 868 868 867 867 867 866 866 865 864 864 863 863 862 861 861 860 859 858 857 856 854 853 852 851 850 848 847
833 835 836 838 840 842 843 845 846 848 849 850 851 853 854 855 856 857 858 859 860 860 861 862 862 863 863 864 865 865 866 866 867 867 868 868 868 869 869 869 869 869 869 869 869 869 869 869 869 869 869 868 868 868 868 868 868 867 867 867 866 866 865 865 865 864 864 863 862 862 861 860 860 859 858 857 856 855 854 853 852 850 849 848 846
831 833 835 837 839 840 842 843 845 846 847 849 850 851 852 853 854 855 856 857 858 859 859 860 861 861 862 862 863 863 864 865 865 866 866 867 867 867 867 867 867 868 868 868 867 868 867 867 867 867 867 867 867 867 867 866 866 866 866 865 865 864 864 863 863 863 862 862 861 860 860 859 858 858 857 856 855 854 852 851 851 849 848 847 845
829 831 833 835 836 838 840 841 843 844 846 847 848 849 851 852 853 854 855 855 856 857 858 858 859 859 860 861 862 862 863 863 864 864 865 865 866 866 866 866 866 866 866 866 866 866 866 866 866 866 866 866 866 865 865 865 865 864 864 863 863 862 862 861 861 861 861 860 859 859 858 858 857 856 856 855 854 853 852 850 849 848 847 846 844
827 829 831 833 834 835 837 839 841 842 844 845 847 848 849 850 851 852 853 854 855 855 856 857 857 858 859 859 860 861 861 862 862 862 863 864 864 864 865 865 865 865 865 865 865 864 864 864 864 864 864 864 864 864 864 864 863 863 862 862 862 861 861 860 860 859 859 858 858 857 856 856 856 855 854 853 853 852 851 850 849 848 847 845 844
824 827 829 831 832 833 835 837 839 840 842 843 845 846 847 848 849 851 852 852 853 854 855 855 856 856 857 858 858 859 859 860 860 861 861 862 862 863 863 863 863 863 863 863 863 863 863 863 863 863 863 863 863 863 863 862 862 861 861 861 860 860 860 859 859 858 857 857 856 855 855 855 854 854 853 852 852 851 851 850 848 847 846 845 844
823 825 827 829 830 831 833 835 836 838 839 840 842 844 845 846 847 849 850 851 852 853 853 854 855 855 855 856 856 857 857 858 858 859 859 860 860 861 861 861 861 862 861 861 861 861 861 861 861 861 861 861 861 861 861 861 860 860 860 859 859 859 858 858 858 857 856 856 855 854 854 853 852 852 852 851 851 850 850 849 848 847 846 845 843
821 823 825 826 828 829 831 832 834 835 837 838 840 841 843 844 845 846 847 849 850 851 852 852 853 853 854 854 855 855 855 855 856 856 857 858 858 859 859 859 859 860 859 859 859 859 859 859 859 859 859 859 859 859 859 859 859 859 858 858 858 857 857 857 857 856 856 855 854 853 852 851 851 851 851 850 850 849 849 848 847 846 845 844 843
818 820 822 824 826 828 829 830 832 834 835 837 838 839 841 842 843 844 845 847 848 849 850 851 851 852 852 852 853 853 853 853 853 854 855 855 856 857 857 857 857 857 858 858 857 857 857 857 857 857 857 857 857 857 857 857 857 857 856 856 856 856 856 856 856 855 855 854 853 852 851 850 850 850 850 849 849 848 848 847 846 845 844 843 842
816 818 820 822 824 826 828 830 831 833 834 835 837 838 839 841 842 843 844 845 846 847 848 849 849 850 850 851 851 851 851 851 851 852 853 853 854 854 854 855 855 855 856 856 856 855 855 855 855 855 855 855 855 855 855 855 855 855 855 855 855 854 854 854 854 854 854 853 853 852 851 850 849 849 849 848 848 848 847 846 846 845 844 843 842
815 817 819 821 822 824 827 828 830 831 832 834 835 836 838 839 840 841 842 843 844 845 846 846 847 848 848 848 848 849 849 849 849 850 851 851 851 852 852 852 853 853 852 853 853 853 852 852 852 853 852 852 853 853 853 853 853 853 853 853 853 853 852 852 852 853 853 852 852 851 850 850 849 849 848 848 847 847 846 846 845 844 843 843 842
814 816 818 820 821 823 825 827 829 831 832 833 834 834 836 837 838 839 840 841 842 842 843 844 845 845 846 846 846 846 847 847 847 848 848 849 849 849 849 850 850 850 850 850 850 850 849 849 849 850 850 850 850 851 851 851 851 851 851 851 851 851 850 850 850 850 851 851 851 850 850 849 849 848 848 847 847 846 845 845 844 844 843 843 842
814 815 817 818 819 821 823 825 827 829 831 833 833 833 834 835 836 838 838 839 840 840 840 841 842 843 843 844 844 845 845 845 845 846 846 847 847 847 847 848 848 847 847 847 847 846 846 846 847 848 848 848 848 848 849 849 849 849 849 849 849 849 848 848 848 848 848 849 849 849 849 848 848 848 847 847 846 846 845 844 844 843 843 842 841
813 815 816 817 818 820 821 822 824 826 829 831 832 831 831 832 834 836 837 838 838 838 838 839 839 840 841 841 842 843 842 842 843 843 844 845 845 845 845 846 846 845 845 845 844 844 844 845 845 845 846 845 845 846 846 847 847 848 848 848 848 847 846 846 846 846 846 846 847 847 847 847 847 847 847 846 846 845 845 844 843 843 842 841 840
812 814 816 817 819 821 822 822 822 823 825 828 830 830 829 829 831 833 836 838 837 836 836 837 837 837 838 839 840 840 840 840 841 841 842 842 843 843 843 843 843 843 843 843 842 842 842 842 842 843 843 843 843 843 843 844 844 845 845 845 845 845 845 844 844 844 844 845 845 845 845 846 846 846 846 846 846 845 845 844 843 842 841 841 840
812 814 815 817 819 821 823 824 823 821 822 825 828 829 828 828 828 829 832 837 838 838 836 835 835 835 835 837 838 838 838 838 839 839 839 840 841 841 841 842 842 842 841 841 841 841 840 840 840 841 841 840 840 840 841 841 841 842 842 842 842 843 843 842 842 842 843 843 844 844 845 845 845 845 845 845 845 845 844 843 843 842 841 841 840
811 813 816 817 817 817 821 825 823 821 822 824 825 826 828 828 828 828 830 833 838 839 836 833 833 834 834 835 836 837 837 837 838 838 838 839 839 839 840 840 840 840 840 840 840 840 839 838 838 839 839 838 839 839 839 839 839 839 840 840 840 839 839 839 839 839 840 841 842 844 845 845 844 844 845 845 845 844 844 843 842 842 841 841 840
811 813 816 817 816 815 819 822 821 820 823 825 824 825 827 828 827 827 828 830 835 839 837 834 833 834 835 835 834 835 836 837 838 838 838 838 838 838 839 839 839 839 839 839 839 839 838 838 838 838 838 838 838 839 838 838 838 838 838 838 837 836 837 837 837 837 838 841 842 843 845 846 845 845 845 845 845 844 843 843 842 842 841 841 840
812 813 815 815 815 815 817 818 818 819 824 826 825 825 826 827 826 826 826 828 832 836 836 834 833 833 835 835 834 834 835 837 838 838 838 838 838 838 838 837 837 838 837 837 837 837 837 837 837 837 837 837 837 838 838 837 836 835 835 835 834 834 835 836 837 837 838 840 842 843 845 847 847 846 846 846 846 845 844 843 842 842 841 841 840
813 814 815 814 813 813 815 818 820 822 824 824 824 825 825 826 826 826 827 828 830 833 834 833 832 833 835 835 835 834 836 838 839 839 839 839 839 838 837 836 835 836 835 835 836 836 836 837 837 837 837 837 837 837 837 837 837 835 835 834 833 834 836 837 839 840 841 842 843 843 845 847 848 847 847 847 847 846 845 844 843 842 842 841 841
814 816 817 815 815 815 818 820 822 822 821 821 823 825 826 826 826 827 827 828 830 832 833 833 833 834 836 836 836 835 837 839 840 840 840 840 840 840 838 836 835 834 835 835 835 836 836 837 837 837 837 837 838 838 838 838 838 838 837 836 835 835 837 838 840 841 843 844 844 844 846 847 848 848 848 848 848 847 846 845 844 843 842 842 841
817 818 817 816 816 817 819 820 820 820 819 821 824 826 826 826 826 826 827 829 831 832 833 834 834 835 837 837 836 836 838 839 840 841 841 841 841 841 841 839 836 835 835 836 836 836 836 837 837 837 837 838 838 838 839 839 839 840 840 838 837 837 838 840 841 842 844 846 845 845 846 847 847 848 848 848 848 847 847 846 846 845 844 843 842
819 819 818 817 818 819 820 821 821 820 821 822 824 826 826 825 825 827 829 831 832 834 835 835 836 836 837 836 835 837 839 841 842 843 843 842 842 842 842 840 837 836 836 836 837 837 837 837 837 837 838 838 838 838 840 840 839 841 841 840 840 840 840 842 842 842 844 847 847 846 846 847 847 848 848 848 848 848 848 848 847 846 845 844 843
823 823 822 822 822 822 822 822 822 822 823 823 824 825 826 826 827 829 831 833 834 835 836 837 837 837 837 836 837 839 841 843 844 844 844 843 843 842 842 840 838 837 837 837 837 838 838 838 837 837 837 838 838 839 841 841 841 842 841 841 842 843 843 844 845 845 846 847 847 847 848 848 848 848 848 848 848 848 848 848 848 847 846 845 844
826 826 826 825 825 824 823 823 824 824 825 826 827 827 829 830 830 831 833 834 835 836 837 838 838 838 838 839 840 842 844 845 845 845 845 844 843 843 842 841 839 838 838 838 838 838 838 838 838 837 837 838 839 840 841 842 843 842 842 843 844 846 846 847 847 847 847 847 848 848 849 849 849 848 848 849 849 849 849 849 848 848 847 846 845
827 827 826 826 825 825 825 826 827 827 828 829 830 831 832 833 833 833 834 834 835 836 838 839 839 840 840 841 843 844 845 846 846 846 845 844 844 843 842 841 840 839 838 838 837 838 838 838 838 838 838 838 840 841 841 842 843 844 843 845 847 848 848 848 848 847 848 848 849 849 849 849 849 849 849 849 849 849 849 849 849 848 847 846 844
828 827 827 827 827 827 828 829 829 830 831 832 832 833 834 834 834 834 834 835 836 837 838 839 840 841 842 843 844 845 846 847 847 846 846 845 844 843 842 841 840 839 838 837 837 838 838 838 839 840 840 841 842 843 843 843 844 845 846 847 848 849 850 849 849 849 850 850 850 850 850 850 850 849 849 849 850 849 849 849 849 848 847 846 844
829 829 829 829 829 830 830 831 832 833 833 834 834 834 835 835 835 835 836 836 836 837 838 840 840 841 842 843 845 846 846 847 847 846 845 844 843 842 841 839 839 838 837 837 838 839 840 840 841 842 843 844 844 845 845 846 846 847 847 848 849 850 850 851 851 851 851 851 851 851 851 851 851 850 850 850 850 850 849 849 849 848 847 846 844
830 830 831 831 832 832 833 833 834 834 835 835 836 836 836 836 837 837 837 838 838 839 839 840 841 842 843 844 845 846 846 847 846 845 844 843 842 840 839 839 838 838 837 838 839 841 842 842 843 843 844 845 845 846 847 847 847 848 849 849 850 851 851 851 852 852 852 852 852 852 852 852 852 851 851 850 850 850 850 849 849 848 847 846 844
832 832 833 833 833 834 834 835 835 836 836 836 837 837 837 838 839 839 840 840 840 840 841 842 842 843 844 845 846 847 847 846 846 845 844 843 842 840 839 839 838 838 838 839 840 841 843 844 844 845 846 846 847 847 848 849 849 850 850 850 851 852 852 852 852 852 852 852 852 852 852 852 852 852 851 851 851 850 850 849 848 848 847 845 844
834 834 835 835 835 835 836 836 837 837 837 837 838 838 838 839 840 841 842 842 842 842 843 843 844 845 846 846 847 847 847 846 845 845 844 843 842 841 840 840 839 839 840 841 842 843 844 845 845 846 847 848 848 849 849 850 851 851 851 852 852 852 852 853 853 853 853 852 852 853 853 853 853 852 852 852 851 851 850 849 848 847 846 845 843
835 835 836 836 836 837 837 837 838 838 838 838 839 839 839 840 841 842 842 843 844 844 845 845 846 846 846 847 847 847 847 846 846 845 845 843 843 842 842 842 841 841 841 842 843 845 846 846 847 848 849 849 850 850 851 851 852 852 852 852 853 853 853 853 853 854 853 853 853 854 853 853 853 853 852 852 852 851 850 849 848 847 845 844 843
836 837 837 837 837 838 838 838 838 838 839 839 839 840 840 841 841 842 842 843 844 845 845 846 846 846 847 847 847 847 847 847 846 846 845 845 844 844 844 844 844 844 844 844 845 846 847 848 849 850 850 851 851 852 852 853 853 853 853 853 854 854 854 854 854 854 854 854 854 854 854 854 853 853 853 853 852 852 851 849 848 847 845 843 842
837 838 838 838 838 838 839 839 839 839 839 840 840 840 840 841 841 842 842 843 843 844 845 845 846 846 847 847 847 847 847 847 847 847 846 846 846 846 846 846 847 847 847 848 848 849 849 850 851 851 852 853 853 854 854 854 855 855 855 855 855 855 855 855 855 855 855 854 854 854 854 853 853 853 853 853 852 852 851 850 848 846 844 843 842
838 839 839 839 839 839 839 840 840 840 840 840 841 841 841 841 842 842 842 843 843 844 844 845 845 846 847 847 847 848 848 847 847 847 847 848 848 847 848 848 849 849 850 850 851 851 851 852 853 853 854 854 855 855 855 856 856 856 856 856 856 856 856 856 855 855 855 855 854 854 854 853 853 852 852 852 852 851 851 850 847 845 843 842 841
838 838 839 839 839 839 840 840 840 841 841 841 841 841 841 842 842 842 842 843 843 844 845 845 846 846 847 847 847 848 848 848 848 849 849 849 849 849 850 850 850 851 851 852 852 853 853 854 854 855 855 855 856 856 857 857 857 857 857 857 857 856 856 856 856 855 855 855 854 854 853 853 853 852 852 851 851 850 850 849 847 845 843 842 840
838 838 839 839 839 840 840 840 841 841 841 841 842 842 842 842 842 842 842 843 843 844 844 845 845 846 846 847 847 848 848 849 849 849 850 850 850 850 851 851 851 851 852 853 853 853 854 855 855 855 856 856 857 857 857 858 858 858 857 857 857 856 856 856 856 855 855 855 854 854 854 853 853 852 852 851 850 850 848 847 846 845 843 842 840
838 839 839 839 839 839 840 840 841 841 841 841 842 841 842 842 842 842 842 843 843 843 844 844 845 845 845 846 846 847 848 849 849 850 850 850 851 851 851 851 852 852 853 853 854 854 855 855 856 856 856 857 857 857 857 858 858 857 857 857 857 856 856 856 856 855 855 855 855 854 854 853 853 852 851 851 850 849 847 846 845 844 843 842 841
839 839 839 839 839 839 839 840 840 840 841 841 841 841 842 842 842 842 842 842 843 843 843 843 844 844 844 845 845 846 847 848 848 849 850 850 851 851 851 852 852 853 853 854 855 855 856 856 856 857 857 857 857 857 857 858 858 857 857 857 856 856 856 856 856 856 855 855 855 854 854 853 852 852 851 850 849 848 847 845 844 844 843 842 841
839 839 839 839 839 839 839 840 840 840 840 841 841 841 841 841 842 842 842 842 842 843 843 843 843 843 843 844 844 845 847 847 848 849 849 850 850 850 851 851 852 853 854 854 855 855 856 856 856 857 857 857 857 857 857 857 857 857 857 856 856 856 856 856 856 855 855 855 855 854 853 853 852 851 850 849 848 847 846 845 844 843 842 841 841
838 838 838 839 839 839 839 839 839 840 840 840 840 840 841 841 841 841 841 842 842 842 842 842 843 842 843 843 843 845 846 846 847 848 848 849 850 850 851 852 852 853 853 854 855 855 856 856 857 857 857 857 857 857 857 857 857 857 856 856 856 856 856 855 855 855 855 854 854 854 853 852 852 851 850 849 847 846 845 844 843 842 842 841 840
837 837 838 838 838 838 838 839 839 839 839 839 839 839 839 840 840 840 840 840 841 841 841 842 842 842 842 842 843 844 845 845 846 847 848 849 850 850 851 852 852 853 854 854 855 855 856 856 856 857 857 857 857 856 856 856 856 856 856 856 856 856 855 855 855 855 855 854 854 854 853 852 852 851 850 848 847 846 845 844 843 843 842 841 840
836 837 837 837 837 838 838 838 838 838 838 838 838 838 838 838 838 838 839 839 839 839 840 840 840 841 841 841 842 843 844 844 845 846 847 848 849 850 851 852 852 853 854 854 855 855 856 856 856 856 856 857 856 856 856 856 856 856 856 856 856 855 855 855 855 855 855 855 854 854 853 852 851 851 850 848 847 846 845 844 843 843 842 841 840
836 836 836 836 837 837 837 837 837 837 837 837 837 837 837 837 837 837 837 837 837 838 838 838 839 839 840 840 841 842 843 844 845 846 847 848 848 849 850 851 852 853 853 854 854 855 855 856 856 856 856 856 856 856 856 856 856 856 856 856 855 855 855 856 856 856 855 855 855 854 853 853 852 851 850 849 847 846 845 844 843 842 841 841 839
836 836 836 836 836 836 836 836 836 836 836 836 836 836 836 836 836 836 836 836 836 836 837 837 837 838 838 839 840 841 842 843 844 845 846 847 848 849 850 850 851 852 853 853 854 854 854 855 855 855 855 855 855 855 855 855 855 855 855 855 855 855 855 856 856 856 855 855 855 854 854 853 852 851 850 849 847 846 845 844 843 842 841 840 839
836 836 835 835 835 835 835 835 835 835 835 835 835 835 835 835 835 835 835 835 835 835 836 836 836 837 838 838 839 840 841 843 844 844 845 846 847 848 849 850 850 851 851 852 853 853 853 854 854 854 854 854 854 854 854 854 854 854 854 854 854 854 855 855 855 855 855 855 855 854 854 853 852 851 850 849 847 846 845 844 843 842 841 840 839
836 835 835 835 835 835 835 834 834 834 834 834 834 834 834 834 834 834 834 834 834 834 835 835 836 836 837 837 838 839 840 841 843 844 845 846 847 847 848 849 849 849 850 851 851 852 852 853 853 853 854 854 854 854 854 854 854 853 853 853 853 853 854 854 854 854 854 854 854 853 853 852 851 850 849 848 847 846 845 844 843 842 841 840 839
835 835 835 835 834 834 834 834 834 834 833 833 833 833 833 833 833 833 833 833 833 833 834 834 835 835 836 836 837 838 839 841 842 843 844 845 846 846 847 848 848 849 850 850 851 851 852 852 853 853 853 853 853 854 854 853 853 853 853 853 853 853 853 853 853 853 853 853 853 853 852 851 851 850 849 848 847 846 845 844 843 842 841 840 838
834 834 834 834 834 834 834 834 833 833 833 833 833 833 832 832 832 832 832 832 833 833 833 834 834 835 835 836 837 838 839 840 842 843 844 844 845 846 846 847 848 849 849 850 850 851 851 851 852 852 852 853 853 853 853 852 852 852 852 852 852 852 852 852 852 852 852 852 852 852 851 851 850 849 848 847 846 845 844 843 842 841 840 839 838
Wind_Speed
22 24 23 22 22 23 22 21 20 18 16 16 15 13 14 14 13 13 13 14 14 13 14 13 13 12 11 11 11 11 11 11 11 12 13 13 13 12 11 11 11 10 9 9 8 8 8 8 7 7 7 7 7 8 8 7 5 5 5 5 5 5 5 5 6 7 7 7 8 8 8 9 9 9 11 11 11 14 13 11 13 12 10 12 12
21 23 23 23 23 23 21 20 19 18 16 15 15 14 14 14 13 13 13 13 14 14 13 13 13 13 12 12 12 12 13 13 12 12 14 14 13 12 11 11 11 10 10 10 9 8 8 8 8 8 7 7 7 7 7 6 6 6 5 5 6 5 5 6 6 7 8 8 8 9 8 9 9 8 11 12 13 15 13 11 11 11 11 13 11
19 21 23 23 22 21 20 19 19 18 17 15 16 15 14 14 14 14 13 12 13 14 13 12 13 14 13 13 14 14 14 14 13 14 15 14 13 12 11 11 10 10 10 10 9 9 8 9 8 8 7 7 7 7 7 6 6 7 7 7 7 7 7 7 6 6 8 9 9 9 8 8 9 8 10 12 12 12 13 12 11 10 11 13 12
19 20 23 22 20 19 19 18 18 17 17 16 16 16 14 13 14 14 12 11 12 12 13 12 13 14 14 14 15 15 15 15 15 14 15 14 14 13 12 12 11 11 10 10 10 9 9 9 9 8 8 8 8 8 7 7 7 7 8 8 9 8 8 9 9 7 8 9 9 10 11 10 9 9 10 10 10 10 12 13 12 11 12 13 12
18 20 21 20 19 19 18 18 17 17 17 16 16 16 15 14 14 13 12 12 11 11 12 12 13 14 14 14 14 15 15 15 15 15 14 14 14 13 12 12 12 11 11 11 11 10 10 10 10 9 9 9 9 8 8 8 8 8 9 9 8 9 9 10 11 9 9 9 10 11 12 11 10 9 9 9 9 9 11 12 11 11 12 13 12
20 20 20 19 19 20 19 18 17 17 17 16 15 15 15 14 13 13 12 12 12 11 11 12 12 14 14 14 14 15 15 15 15 15 14 13 14 13 13 13 12 12 12 12 11 11 11 10 10 10 10 10 10 9 9 9 9 9 9 9 8 9 10 10 11 11 10 10 10 10 10 9 9 9 9 10 11 9 10 11 10 10 11 13 13
23 22 21 19 19 22 21 18 17 17 16 16 15 14 14 14 13 13 13 12 12 12 12 12 12 13 14 14 14 15 15 15 15 16 15 14 14 14 13 13 12 12 12 12 12 12 11 11 11 11 11 11 11 10 10 10 10 9 9 9 10 10 9 9 10 11 10 10 10 10 9 8 9 9 10 11 10 7 8 11 12 12 12 14 14
23 23 21 19 20 23 22 20 19 18 17 16 16 14 14 14 13 13 13 13 13 13 12 12 12 13 13 14 14 14 15 15 15 16 16 15 14 13 13 13 13 13 13 13 13 12 12 11 11 11 11 12 12 12 11 11 10 10 10 11 12 12 10 8 9 9 9 10 10 9 9 9 9 9 9 9 8 6 8 10 13 14 13 13 13
22 21 21 21 23 24 23 22 22 21 20 19 18 17 15 14 14 13 13 13 13 13 12 12 12 12 13 14 15 15 14 15 16 16 16 15 14 13 13 13 13 13 13 13 13 13 13 13 12 11 11 12 13 13 12 12 12 11 10 12 13 12 10 8 7 7 7 8 9 9 9 9 9 9 8 8 8 9 10 12 13 13 13 12 12
21 20 20 22 23 24 24 24 24 23 22 21 21 20 18 16 15 14 14 14 14 14 14 13 13 12 13 14 15 15 14 15 16 16 15 15 14 13 14 15 16 15 15 15 14 14 14 13 13 13 14 14 14 14 13 13 12 11 11 12 11 10 8 7 6 6 6 7 8 9 9 10 10 9 8 8 9 9 11 12 13 13 12 12 10
22 21 21 21 20 19 20 22 22 22 22 21 20 20 19 18 17 16 15 14 15 16 16 15 14 13 13 13 14 14 14 15 16 16 15 15 16 15 15 16 17 17 16 15 14 14 13 13 13 13 14 14 13 14 14 13 13 13 13 12 10 9 8 7 6 6 6 7 9 10 11 11 10 9 9 10 9 10 11 12 12 12 11 11 11
21 20 20 20 18 15 14 15 16 18 20 20 20 20 19 19 18 18 16 14 15 15 16 16 16 15 14 14 14 14 14 15 16 15 14 15 16 16 15 15 15 16 17 16 15 14 13 13 13 12 12 13 14 14 14 13 14 13 13 12 11 10 9 9 8 7 7 8 10 11 12 11 9 8 9 9 8 11 12 12 11 10 11 12 11
19 18 17 17 17 14 12 12 13 14 16 17 18 18 19 19 19 19 18 16 15 15 15 16 16 17 16 15 16 15 14 16 17 16 15 16 16 17 17 16 16 17 19 19 18 17 15 15 14 13 13 15 16 16 15 15 14 14 13 12 12 12 11 11 11 10 9 9 10 11 10 9 10 9 8 7 9 12 12 10 10 10 10 11 10
16 15 14 13 12 11 10 10 10 10 10 11 13 15 17 18 19 19 19 19 18 17 16 15 16 17 17 17 18 17 15 17 19 19 18 18 18 19 19 18 18 18 17 18 19 18 17 16 15 14 14 16 18 17 16 16 16 15 13 11 10 11 11 10 11 12 10 8 8 9 8 7 8 8 7 8 10 11 10 8 8 9 9 9 9
15 14 12 12 12 12 10 9 9 9 9 10 9 9 11 15 17 17 19 19 18 18 18 17 17 19 19 19 18 15 15 19 21 20 20 20 20 19 19 18 19 18 17 18 19 19 18 17 16 15 15 16 18 18 17 18 17 15 13 10 8 8 10 10 10 10 9 7 5 6 6 5 6 7 7 8 9 9 7 5 5 6 7 8 8
17 14 12 13 15 15 13 11 11 10 10 12 12 10 8 9 11 12 14 15 15 15 15 13 14 15 16 18 18 15 17 20 20 19 20 20 20 18 17 18 20 20 19 19 19 20 19 18 18 17 17 18 20 19 19 19 18 15 12 10 8 7 9 11 11 9 9 8 7 6 6 7 8 7 6 5 5 5 4 4 4 6 7 7 8
15 13 12 12 12 11 12 12 12 11 11 12 15 14 11 10 10 10 12 12 10 11 10 8 9 10 11 12 13 14 16 19 19 19 20 19 18 17 17 17 18 18 17 16 17 18 17 18 19 18 18 20 21 19 19 20 19 16 13 11 9 7 5 7 8 7 7 7 7 6 6 5 3 2 1 2 3 3 2 3 4 6 6 6 7
14 13 11 9 5 4 6 8 10 11 11 13 15 16 15 14 14 13 12 11 10 8 5 5 8 10 9 10 10 11 13 15 16 17 18 18 17 16 15 13 13 13 13 13 13 12 12 15 16 15 15 18 19 18 19 20 20 18 15 12 11 10 7 6 6 5 4 4 4 4 4 4 4 3 2 3 4 4 4 4 5 5 6 5 6
8 9 8 7 6 6 7 8 7 6 7 10 13 14 14 13 11 9 8 10 12 9 6 6 7 6 6 6 7 6 7 9 11 12 14 15 15 14 11 10 10 10 10 9 9 7 7 11 12 11 12 14 15 16 18 18 18 15 13 13 13 12 11 11 9 9 8 9 10 11 10 8 6 4 3 4 4 6 7 7 6 5 5 4 5
3 5 5 5 7 8 9 8 6 5 7 8 8 9 10 8 7 6 7 9 10 9 8 7 5 2 2 2 2 2 1 4 6 7 9 10 11 9 7 6 8 9 8 7 5 3 5 8 9 8 8 10 11 13 15 17 16 13 11 12 13 13 13 12 12 14 15 15 15 14 10 7 6 5 6 6 7 8 9 8 7 6 5 4 4
5 6 6 5 4 4 4 3 3 4 7 7 5 5 6 6 6 6 6 6 7 8 8 6 4 4 3 3 4 3 3 3 4 4 5 6 7 7 6 6 7 5 4 4 4 3 3 4 5 5 6 6 7 9 11 14 15 13 12 13 11 10 11 11 13 16 18 17 15 13 10 7 6 6 7 8 8 8 9 8 7 6 5 4 4
9 9 8 7 6 5 3 2 1 3 4 4 3 4 5 5 4 5 5 5 6 7 8 7 7 7 5 5 7 8 8 7 6 6 6 5 3 2 4 5 5 5 5 4 3 2 2 3 3 4 5 5 5 6 6 7 8 6 5 7 7 7 9 11 14 16 16 15 13 12 10 8 6 6 6 7 7 7 7 7 6 6 6 6 5
17 16 15 15 14 11 9 7 6 5 4 2 1 3 4 3 3 4 5 6 7 7 8 9 9 10 11 12 14 15 14 12 11 10 10 10 10 9 6 5 4 2 2 2 1 1 2 3 4 4 4 4 4 4 4 3 2 1 2 4 5 7 8 12 14 14 13 12 11 10 8 6 6 6 6 6 6 6 6 5 5 6 6 6 6
21 19 19 20 19 16 13 10 8 8 7 4 1 2 2 3 4 4 5 6 8 9 9 9 11 13 15 16 16 15 13 12 11 11 10 10 10 11 11 11 12 11 9 9 8 6 5 5 5 6 6 6 5 3 3 4 4 3 3 4 7 9 9 10 12 12 11 10 10 9 8 7 6 6 5 5 5 5 5 5 5 6 6 6 6
22 22 22 22 21 18 17 15 14 13 12 9 7 5 5 5 6 6 5 6 9 11 10 10 11 13 14 15 15 13 11 10 9 8 8 8 9 9 10 11 13 14 13 12 11 11 10 10 11 11 10 11 11 8 4 4 5 3 3 7 10 9 7 7 9 11 10 8 8 9 8 7 6 5 4 4 5 5 4 4 4 5 5 5 5
22 21 21 21 20 19 19 18 18 18 18 17 15 13 10 9 9 8 8 9 10 11 11 9 10 11 12 13 14 12 10 8 7 6 6 6 7 8 8 10 11 12 11 10 9 9 9 8 8 8 8 8 8 5 2 2 3 4 5 8 9 8 9 10 11 11 10 8 7 8 7 5 5 5 5 5 5 6 5 5 5 5 6 6 6
18 17 17 18 19 19 18 18 18 18 19 19 19 17 15 13 11 10 10 10 10 9 9 8 8 9 11 12 12 10 8 6 5 5 5 5 6 7 8 8 9 9 8 6 5 5 6 5 5 6 6 5 4 3 4 5 7 10 12 13 12 12 13 13 12 11 10 8 7 6 5 4 5 6 6 6 6 7 6 6 6 6 7 7 6
15 14 15 16 17 17 16 16 17 18 18 18 18 17 15 13 12 11 10 10 9 8 7 6 7 9 11 11 9 8 6 4 4 4 4 4 5 5 6 7 6 6 6 3 2 3 4 5 6 7 6 6 7 10 13 14 16 18 18 17 16 14 13 12 13 12 11 9 7 6 5 5 6 6 6 7 7 7 7 6 6 7 8 8 7
17 15 15 15 15 15 15 15 16 17 17 17 16 15 13 12 10 9 8 7 7 7 6 6 7 9 9 9 7 6 5 4 3 3 3 4 4 4 4 4 4 4 4 2 3 5 6 6 7 9 10 11 14 17 19 19 18 18 17 16 15 13 12 12 12 12 10 9 7 7 6 6 6 6 5 6 6 6 6 7 7 7 8 7 7
18 16 15 14 14 14 15 15 15 16 16 16 16 16 14 13 11 10 8 6 4 4 4 4 5 6 6 7 6 5 4 3 3 4 5 6 6 5 4 3 2 2 3 3 4 6 7 8 9 10 11 12 13 13 14 14 14 13 13 12 11 10 9 9 9 8 8 8 7 6 6 5 5 4 4 4 4 4 6 6 6 6 7 8 7
16 15 14 14 13 14 14 14 14 15 15 15 15 15 15 14 13 12 11 9 7 6 5 6 6 5 4 4 4 3 3 3 5 6 6 7 6 6 5 4 3 3 4 5 6 6 7 8 10 10 10 10 10 9 9 9 9 9 8 8 8 8 7 7 7 6 6 6 6 6 5 4 4 4 4 4 3 3 5 5 6 6 7 8 8
13 12 12 13 12 12 13 13 13 13 13 12 13 13 13 14 14 13 12 11 10 10 9 9 8 6 4 4 4 3 4 5 7 8 8 8 8 8 7 6 6 6 5 7 8 8 8 9 10 9 9 9 9 9 8 7 7 7 6 6 7 6 6 6 6 5 5 5 5 5 4 4 4 3 3 4 4 4 5 5 6 7 8 8 8
12 10 10 11 11 11 12 11 11 11 10 10 10 9 9 10 12 12 12 12 12 11 11 10 9 7 6 6 6 7 8 9 10 10 10 10 10 9 9 9 8 7 7 9 10 9 9 10 10 9 9 9 8 7 7 7 6 6 6 6 6 5 5 5 5 4 4 4 4 4 4 4 4 3 4 4 5 5 5 6 7 7 8 8 9
10 10 9 9 10 10 11 10 9 9 9 8 8 7 7 8 10 10 11 11 11 11 10 9 8 7 7 8 9 10 11 11 11 11 11 12 12 11 11 11 10 9 10 13 13 12 10 11 10 9 9 8 7 7 7 6 6 5 5 5 4 4 3 3 3 4 4 4 4 4 4 4 4 4 5 5 6 6 6 7 8 8 9 10 10
8 8 9 8 8 8 8 8 7 7 7 7 6 6 7 7 7 7 7 8 8 9 9 9 8 8 8 9 9 10 11 11 12 12 13 13 13 13 13 13 13 12 12 14 14 13 11 11 10 9 8 7 7 6 6 5 4 4 4 3 3 3 2 2 2 3 3 4 4 4 4 5 5 5 5 5 6 7 8 8 9 9 10 10 10
6 6 7 7 7 6 5 6 6 6 6 6 5 5 6 6 5 5 6 6 7 8 9 9 8 8 8 8 8 9 10 10 11 12 13 13 14 14 13 12 12 12 12 12 11 11 10 10 9 8 8 7 7 6 5 4 4 3 3 2 2 2 1 1 1 1 2 2 3 3 3 4 5 5 5 5 6 8 9 10 10 10 10 9 10
6 5 5 6 6 5 5 6 7 7 7 6 5 4 4 4 4 5 5 5 6 6 8 9 8 7 7 7 7 7 8 9 10 12 12 12 13 13 12 10 9 9 9 9 9 10 10 10 9 9 8 7 7 6 6 5 4 3 3 2 2 1 1 1 1 1 2 2 2 3 4 5 5 6 6 6 8 10 12 12 12 11 9 9 9
6 5 4 4 4 5 5 7 7 6 6 5 3 3 3 3 4 4 4 5 6 6 7 8 8 6 6 7 7 7 7 7 8 9 9 9 10 10 9 9 8 8 8 8 9 9 9 9 8 8 8 7 7 6 5 5 4 3 2 2 2 1 1 1 1 1 2 2 3 3 4 4 5 6 7 7 8 10 12 12 12 11 10 8 8
6 5 4 3 2 3 4 5 5 4 3 3 3 2 2 2 3 3 4 5 5 5 6 7 7 6 7 8 9 8 7 6 6 6 7 7 7 7 7 7 7 8 8 8 8 8 8 8 8 7 7 7 6 5 5 4 3 3 2 2 1 0 0 1 0 1 1 2 3 3 4 4 5 6 7 8 9 10 11 11 10 10 9 9 8
4 4 4 3 2 1 1 1 1 1 2 3 3 2 1 1 2 3 3 4 4 5 5 6 6 7 9 11 11 10 7 6 6 6 6 6 6 6 6 6 6 7 7 7 7 7 7 7 7 6 6 5 5 4 4 3 2 2 2 2 1 1 0 0 0 1 2 2 3 3 4 5 5 6 8 9 10 10 10 10 9 9 8 8 8
3 3 3 3 3 1 0 1 1 1 1 2 2 3 2 1 1 1 2 3 3 4 4 5 5 6 9 12 12 10 8 7 7 7 7 7 6 6 6 6 6 7 7 7 6 6 6 6 5 5 4 4 3 3 3 2 2 2 2 2 1 1 0 0 1 1 2 2 3 4 5 6 7 8 10 11 10 10 9 9 9 8 8 8 8
2 1 1 2 2 1 0 0 1 1 2 2 2 2 2 2 1 1 2 2 3 3 4 4 5 6 8 11 13 12 9 7 8 8 8 8 7 7 7 7 7 7 7 6 6 6 5 5 4 4 3 3 3 2 2 2 2 2 2 2 2 1 2 2 2 2 2 3 4 5 6 8 9 11 12 11 10 10 9 9 8 8 8 8 8
1 1 1 1 1 1 1 1 1 2 2 2 3 3 3 3 2 2 2 2 3 3 3 4 5 6 6 8 13 14 11 9 9 10 10 9 8 8 8 8 7 7 7 6 6 5 5 4 3 3 3 3 3 2 2 2 3 3 3 2 2 3 3 4 4 3 3 4 5 6 8 9 10 11 11 11 10 10 9 9 8 8 8 8 8
2 1 1 1 1 1 2 2 2 3 3 4 5 4 4 4 4 3 3 3 3 4 4 4 5 6 6 8 12 13 11 10 11 12 11 10 10 9 8 8 7 7 6 6 5 4 4 4 3 3 3 2 2 2 2 2 2 2 2 2 3 4 4 4 3 3 4 5 6 7 8 10 10 10 10 11 10 10 9 8 8 8 8 8 8
3 2 2 2 2 2 2 2 2 3 3 4 5 5 5 5 5 5 5 5 5 5 4 4 5 6 6 8 10 11 11 12 14 14 12 11 11 10 9 8 8 7 6 6 5 4 4 4 3 2 2 1 1 1 1 1 1 1 2 4 5 5 4 3 2 3 3 5 6 8 9 9 10 10 11 10 10 9 9 8 8 8 8 8 8
4 4 4 4 3 3 3 3 3 3 3 3 4 4 4 4 4 4 5 5 6 6 6 6 6 6 7 8 9 11 12 13 14 13 13 12 11 11 10 10 9 8 7 7 6 5 5 4 3 2 2 1 1 1 0 1 2 3 4 4 4 3 2 2 1 2 3 5 7 7 8 9 9 10 10 10 10 9 9 8 8 8 8 8 9
4 5 5 6 6 7 7 6 6 5 5 4 4 5 5 4 4 4 5 5 6 6 6 7 7 7 7 8 10 12 13 13 12 13 14 13 12 12 12 11 10 9 8 7 7 6 5 4 4 3 3 3 2 2 2 1 2 4 4 4 3 3 3 2 1 3 5 6 6 7 8 9 9 9 10 10 10 9 9 9 8 8 8 8 9
7 7 7 8 8 8 8 8 7 7 6 5 5 5 4 4 4 4 3 4 5 5 6 8 9 9 10 11 12 13 14 14 13 14 14 13 12 12 11 10 9 9 8 8 8 7 6 5 5 4 3 3 3 2 2 2 3 4 3 3 3 5 5 3 2 4 5 5 6 6 7 8 8 9 10 11 10 10 10 9 8 8 9 9 9
9 8 8 8 8 7 7 7 7 7 6 5 5 4 4 4 4 4 3 3 3 4 5 7 8 9 11 12 13 14 14 15 15 14 13 12 11 11 10 9 9 9 8 8 8 7 6 5 5 4 3 3 3 2 3 4 4 4 3 3 4 5 5 2 3 4 4 5 6 6 7 7 8 9 10 11 10 10 10 9 9 9 9 9 10
7 7 6 6 6 6 6 6 6 5 4 4 4 3 3 4 4 4 3 2 3 3 4 6 7 8 10 12 14 15 15 15 14 13 12 12 11 11 10 10 10 9 8 8 7 6 5 5 4 4 3 3 3 3 5 5 5 4 4 4 4 4 3 4 5 3 3 6 7 6 6 7 8 8 9 10 10 10 9 9 9 9 9 9 10
4 4 4 5 5 5 5 6 6 5 5 5 4 4 4 4 3 3 2 2 2 2 3 5 6 7 8 11 13 15 15 14 13 11 12 12 12 11 11 11 10 9 8 7 7 6 5 5 4 4 3 3 4 5 6 6 6 6 5 5 4 3 4 6 6 5 4 7 8 7 7 8 8 8 10 10 10 10 9 9 9 9 9 10 10
Wind_Direction
204 207 207 207 210 213 216 220 223 224 227 230 230 232 237 241 243 246 249 250 249 249 249 247 245 245 244 245 245 247 250 248 245 249 257 261 262 261 264 271 273 268 265 265 268 267 268 277 282 282 282 278 277 279 280 281 280 282 283 278 275 274 270 266 272 290 301 307 317 323 329 333 333 335 340 340 339 342 344 340 343 349 349 349 349
203 206 207 208 210 211 213 215 219 220 220 222 224 227 234 240 244 248 249 251 252 252 250 246 247 248 247 247 248 248 250 249 247 252 260 263 262 259 260 266 268 265 261 263 265 264 265 272 279 283 281 276 276 278 279 279 280 284 285 283 284 282 288 287 277 287 298 302 313 318 320 328 331 332 336 339 340 344 347 346 346 348 347 348 348
204 206 209 211 211 210 210 213 216 218 218 220 223 225 229 234 242 247 245 246 250 253 250 245 248 252 252 252 253 251 251 249 248 254 259 261 258 254 254 258 262 261 260 261 263 263 265 268 274 280 280 278 279 280 280 280 281 287 288 288 290 287 292 299 288 285 297 303 309 314 315 321 325 326 333 338 341 344 348 347 347 347 346 346 345
205 208 212 213 211 210 211 213 214 216 218 220 222 224 226 230 237 242 239 239 244 249 251 247 248 254 254 253 253 252 251 250 250 253 256 256 254 253 253 255 258 259 258 260 263 264 266 267 270 275 280 283 284 282 280 279 280 286 288 289 290 287 286 294 293 284 288 296 300 306 310 312 313 318 327 335 336 338 342 344 343 343 344 345 343
205 210 212 210 209 211 212 213 215 216 218 220 222 223 224 225 231 234 234 236 239 242 247 247 247 249 249 248 250 253 254 254 254 254 254 254 254 254 255 257 257 257 257 259 261 263 265 266 266 268 276 282 283 281 279 281 284 287 288 289 289 289 285 285 287 282 277 282 290 298 305 304 305 310 318 328 331 330 333 338 338 338 341 345 345
208 210 210 207 208 212 213 213 215 216 218 220 221 222 221 221 226 229 230 234 238 238 241 243 245 247 247 246 248 253 257 258 258 257 256 255 257 257 257 258 258 257 257 257 258 261 263 265 264 265 270 275 278 279 281 286 288 286 288 293 296 299 294 285 284 282 276 276 280 287 292 294 296 299 307 322 327 326 329 335 337 339 341 342 344
212 212 210 206 209 216 215 214 216 216 217 219 219 220 221 223 225 228 230 234 237 238 238 241 245 248 249 249 249 254 259 260 259 260 259 257 258 259 258 257 257 257 258 258 258 260 260 263 264 265 267 269 271 276 282 286 287 282 286 296 302 305 299 286 283 280 274 272 277 280 282 287 293 292 300 316 321 322 333 337 336 339 342 341 341
213 213 212 208 213 219 219 217 218 217 217 219 220 220 221 225 228 231 233 235 238 240 240 243 246 247 247 249 250 254 260 262 260 260 262 261 258 258 257 256 255 257 260 261 261 260 260 262 265 265 266 268 271 275 280 285 287 285 287 294 301 303 297 285 283 280 276 276 278 280 282 285 289 289 297 312 318 322 332 333 331 336 341 339 338
212 212 212 213 219 223 223 222 223 223 223 224 225 224 222 226 230 234 236 238 239 241 243 246 248 247 248 252 255 256 257 259 260 261 263 264 261 257 255 255 256 259 263 264 261 259 259 261 264 266 271 277 279 277 276 281 283 283 286 292 296 298 295 287 284 281 280 282 281 283 285 286 289 293 300 314 319 321 327 331 333 335 338 336 335
210 210 213 218 223 225 225 226 227 227 227 227 229 228 227 228 231 234 238 239 239 242 247 250 249 248 250 252 254 255 253 255 261 262 261 262 263 259 258 261 263 264 266 266 264 261 259 260 263 269 278 284 286 281 276 277 278 276 279 283 285 290 291 286 283 282 279 282 286 290 291 293 299 304 306 311 315 320 328 333 332 331 335 336 334
209 211 215 220 223 224 225 227 228 229 229 230 231 232 233 234 236 239 241 242 245 250 253 253 253 252 253 252 252 252 251 257 264 264 259 260 263 262 263 268 270 269 268 265 263 263 263 263 264 270 277 282 285 285 279 272 271 273 273 273 275 282 285 283 284 283 280 283 289 293 295 298 302 304 305 309 315 322 325 327 327 328 334 334 333
207 209 214 218 219 220 222 225 227 229 231 231 232 235 238 239 241 245 245 245 250 253 255 256 257 259 258 256 256 254 255 264 270 267 261 261 262 262 263 265 266 267 267 266 265 264 264 266 267 268 271 275 281 285 281 274 271 270 269 270 274 279 281 284 287 287 285 288 291 293 295 298 298 301 309 313 315 317 318 320 323 328 332 333 338
204 206 211 216 217 215 215 220 225 229 233 235 236 238 240 241 244 247 249 250 251 253 255 256 258 261 261 259 260 261 261 268 272 270 265 262 260 260 260 258 261 264 265 265 266 266 266 267 268 268 270 276 281 281 278 274 270 267 266 268 273 277 278 281 283 283 284 286 288 291 295 297 298 303 311 312 310 313 318 322 328 334 337 336 340
199 201 201 205 210 211 211 215 222 230 235 237 239 240 241 244 247 250 253 255 256 257 258 257 259 264 266 265 266 267 264 267 271 272 270 266 262 261 260 261 264 264 260 260 263 266 267 268 270 269 270 276 280 279 273 268 264 261 261 262 266 273 277 280 283 283 280 278 284 290 293 294 297 302 307 310 313 317 321 325 332 337 335 329 328
196 196 189 186 191 195 197 205 219 236 244 243 240 239 244 251 254 255 256 256 258 261 262 262 264 268 269 268 268 267 264 268 273 273 270 268 265 262 261 261 262 261 258 261 266 269 272 273 273 273 271 273 277 276 268 260 257 255 253 251 249 257 265 270 275 277 273 266 271 283 283 286 295 303 311 317 322 326 325 327 334 334 328 326 326
194 187 178 185 196 201 204 207 214 228 242 248 242 230 231 249 259 267 267 262 257 259 261 263 267 271 273 271 268 264 264 269 271 269 267 266 264 260 256 254 254 256 258 263 267 271 274 274 275 276 274 272 274 273 264 256 252 249 249 248 240 238 256 265 264 264 263 260 259 268 277 288 299 308 316 321 325 332 330 331 341 335 331 333 328
187 179 180 192 202 213 220 220 219 224 235 248 247 239 233 237 248 266 276 272 261 254 255 259 262 265 274 277 270 263 265 269 268 265 264 263 262 259 256 254 254 255 257 261 265 268 271 272 272 273 272 270 270 268 259 250 245 243 245 246 236 225 238 256 257 260 266 267 267 269 271 277 285 290 330 10 6 9 355 341 349 342 333 331 325
184 180 184 188 185 210 239 241 234 231 237 248 253 250 245 241 244 252 260 268 271 265 251 251 260 263 268 272 267 261 263 266 265 265 264 262 260 258 256 256 256 257 258 261 264 267 267 267 267 264 261 263 262 257 250 244 241 241 241 241 237 230 216 212 226 239 239 234 224 203 185 164 150 140 105 59 16 21 35 22 9 354 337 333 326
180 181 182 190 207 227 245 254 251 248 253 255 254 256 255 252 251 249 248 260 272 277 266 252 254 259 257 254 253 253 261 268 270 270 269 267 262 258 256 257 257 257 259 262 268 268 256 259 266 264 261 262 257 249 243 240 240 242 241 240 241 233 212 197 200 198 178 164 157 147 140 136 131 112 78 55 26 32 47 41 27 12 351 339 333
194 203 188 185 209 223 232 243 259 280 277 261 251 254 255 246 231 226 232 241 249 256 258 251 236 221 215 208 198 201 272 299 298 292 289 282 269 257 250 250 247 249 252 252 255 255 248 258 270 272 271 270 262 256 253 248 248 248 243 243 247 239 220 202 195 187 169 155 148 140 129 118 106 88 69 57 41 37 40 38 34 27 9 349 343
194 204 191 172 180 205 228 255 285 280 265 255 238 233 237 228 218 223 228 215 203 213 231 229 182 155 155 142 123 100 65 32 356 333 323 306 281 258 242 236 234 234 233 223 211 213 252 278 287 285 282 276 267 268 268 261 254 247 236 233 234 227 210 187 173 167 157 147 141 130 118 101 83 72 59 48 41 35 34 35 36 33 29 20 1
136 136 130 124 116 110 103 90 121 203 228 235 226 227 235 233 226 223 211 189 178 186 192 183 161 148 134 115 100 85 74 64 51 38 36 34 17 295 246 238 230 216 204 198 204 236 301 338 332 318 313 305 292 296 300 284 268 251 215 203 193 182 176 163 153 147 140 135 130 119 109 96 72 59 51 41 36 36 36 37 41 45 51 54 42
109 109 111 111 110 112 116 123 132 134 125 118 205 235 229 214 208 198 176 166 159 152 150 150 144 131 116 107 99 93 89 84 74 64 60 59 56 51 56 69 75 101 148 124 76 345 341 344 331 328 336 333 322 327 350 360 350 24 100 140 150 148 150 149 143 137 130 128 122 109 97 86 66 54 47 35 29 36 44 47 51 56 60 62 62
95 96 98 101 103 105 106 106 103 97 95 97 129 208 184 160 158 156 151 151 148 140 135 136 131 123 115 107 99 93 88 82 74 66 62 61 58 53 57 68 70 68 69 71 67 62 58 51 42 38 41 43 40 33 45 68 71 55 59 107 123 125 132 139 139 132 123 115 107 96 84 74 66 55 47 43 38 43 52 54 54 59 60 57 53
85 84 84 86 89 92 92 91 88 85 88 92 95 99 110 119 122 118 113 122 131 130 127 126 123 118 112 104 96 89 84 81 75 67 62 66 69 64 59 61 64 64 68 72 71 69 71 73 71 68 61 57 59 61 60 76 87 79 106 136 133 125 130 143 138 126 114 100 90 84 76 68 65 62 60 62 58 50 45 42 37 38 36 26 22
82 82 83 83 82 81 81 82 83 83 84 86 88 92 99 109 113 109 102 105 114 117 118 117 115 111 107 103 99 98 97 93 83 71 63 63 64 57 49 47 50 52 58 68 75 77 75 72 72 77 70 54 54 65 78 99 110 114 131 142 135 119 119 128 121 109 101 89 77 74 73 73 79 81 75 70 64 51 36 21 8 8 5 357 355
89 88 86 83 79 76 75 76 81 85 85 85 87 91 96 102 106 105 105 106 107 108 111 113 113 112 112 111 112 113 112 108 95 81 69 56 46 38 36 38 40 41 46 62 83 87 81 74 71 76 69 51 53 100 125 125 119 113 111 113 113 109 110 110 101 92 87 81 77 80 86 91 89 83 75 68 62 51 37 22 7 0 357 349 342
95 95 92 87 83 82 82 83 86 89 90 89 90 91 95 98 102 103 103 104 103 103 108 118 122 123 123 124 124 122 116 111 105 92 72 47 32 26 26 30 31 31 33 47 101 103 96 103 103 96 96 102 110 114 114 114 114 111 108 107 106 102 96 86 79 76 75 76 82 91 97 97 91 84 79 74 65 51 39 27 10 356 349 343 341
89 93 94 91 88 87 89 93 96 97 96 95 92 90 90 90 92 94 93 95 100 102 109 125 134 135 134 132 127 118 107 101 90 64 33 10 353 344 347 360 12 22 25 43 109 104 98 104 109 111 116 117 114 111 110 110 108 104 101 98 94 89 81 73 70 69 68 73 80 85 89 92 89 82 77 73 62 45 30 20 7 354 347 344 341
82 86 90 92 93 94 96 100 102 102 101 99 96 92 89 85 83 83 81 79 85 93 96 109 127 136 134 127 121 113 101 84 40 10 2 355 347 343 347 357 15 36 50 87 113 110 109 114 117 120 122 118 114 111 109 107 104 99 96 92 87 84 80 75 72 70 69 71 72 71 74 78 76 67 57 53 46 28 15 10 3 354 349 344 339
75 78 82 88 95 101 104 106 107 105 104 104 102 98 93 87 82 79 77 76 78 84 87 94 106 115 113 107 109 104 75 43 25 21 21 22 23 29 39 49 64 74 94 118 120 114 117 120 117 117 119 115 110 105 102 100 98 95 94 90 86 82 79 76 75 72 68 68 69 67 66 63 57 50 41 32 20 7 3 1 357 352 346 339 335
74 75 81 88 96 104 109 112 112 109 107 107 106 103 100 94 88 83 81 80 84 91 99 106 114 119 113 102 100 92 71 55 52 54 51 44 46 54 60 65 71 77 103 130 127 113 113 116 112 108 108 104 97 90 85 83 79 76 78 80 77 73 74 75 76 70 65 66 68 65 61 56 46 38 32 20 4 355 354 352 348 345 338 332 328
79 79 83 91 99 108 113 114 113 113 112 112 111 110 109 107 103 99 96 93 93 97 103 111 117 120 115 106 95 85 78 74 73 72 64 56 58 64 67 68 71 81 111 130 123 111 110 113 109 103 100 99 96 91 88 85 81 76 75 75 73 73 74 74 72 69 68 71 71 66 61 55 40 26 20 15 2 352 348 345 340 336 331 327 324
84 82 82 88 99 111 117 117 114 114 114 113 113 115 120 123 123 121 116 111 108 107 108 111 112 110 106 101 94 86 82 81 80 76 69 64 65 67 68 71 75 89 114 123 117 109 108 108 105 105 108 109 109 108 106 104 102 97 94 92 92 92 91 89 81 73 69 69 68 62 53 44 32 20 12 5 356 346 339 336 335 332 328 325 322
83 84 84 86 92 103 112 115 114 116 116 112 111 119 129 132 133 134 135 131 126 123 122 122 120 115 110 106 100 93 88 86 84 78 73 71 74 75 76 77 79 87 100 109 111 109 109 108 108 110 112 111 105 99 96 94 91 89 92 97 104 110 114 114 105 89 78 73 69 62 54 45 32 20 7 357 351 343 334 328 327 324 322 322 320
71 79 83 88 92 95 100 105 110 118 120 115 115 128 139 145 146 144 145 145 140 138 140 141 138 131 125 119 111 102 94 90 88 86 83 82 81 79 78 77 80 84 89 95 102 106 106 106 107 104 100 95 88 82 80 78 77 77 79 86 96 105 107 107 110 103 95 85 74 63 51 39 28 15 1 349 341 334 327 324 321 317 316 318 317
48 57 69 84 92 96 102 107 110 111 109 106 111 129 145 158 165 163 162 161 156 154 157 158 154 147 141 139 132 118 105 99 97 96 95 89 81 77 75 76 82 87 88 90 96 100 99 99 99 97 94 93 89 86 85 84 82 83 82 81 83 88 105 137 157 131 101 78 61 50 36 28 24 14 357 342 333 327 324 322 320 317 315 314 312
37 43 54 76 90 100 113 121 119 112 106 101 103 121 141 159 173 179 182 182 179 178 176 175 173 166 162 164 159 144 126 115 109 106 103 95 82 76 77 81 87 93 96 99 100 101 99 98 98 96 95 93 91 89 89 87 87 89 85 86 99 117 134 152 170 136 92 69 54 45 37 28 20 9 354 339 330 326 322 320 320 320 319 318 317
31 37 45 62 89 107 122 129 127 118 109 101 100 114 139 168 183 187 187 190 193 194 195 196 195 189 183 182 179 169 156 141 129 124 118 106 93 85 85 90 96 102 108 110 110 109 107 106 104 102 98 93 89 86 80 73 69 61 47 43 50 75 115 116 105 27 41 49 45 38 30 19 8 2 352 338 328 325 323 321 321 320 319 319 320
24 28 32 41 57 95 159 152 121 90 82 78 76 76 98 150 182 190 191 194 198 200 205 211 210 205 204 202 193 183 178 172 160 152 143 129 115 105 101 103 108 112 116 117 116 113 111 109 107 101 94 89 83 77 70 63 54 41 27 21 15 352 329 128 90 52 53 58 52 39 22 7 356 351 345 334 325 321 320 319 318 316 315 315 316
9 13 20 30 39 42 259 249 308 2 27 37 36 34 37 49 147 191 199 203 204 208 214 221 222 222 225 222 211 200 193 186 174 165 158 150 142 133 128 127 127 126 127 128 126 122 118 114 109 100 91 85 74 58 48 37 22 12 359 346 336 320 290 292 57 71 68 52 34 22 8 356 348 341 335 330 325 320 319 320 318 316 315 314 314
338 338 341 3 17 21 20 304 313 320 328 339 351 358 355 347 335 297 249 228 219 216 215 219 228 233 231 225 219 213 207 195 183 176 169 163 158 154 149 145 141 139 138 137 134 131 125 117 110 100 89 80 64 46 31 16 356 344 336 326 319 314 314 317 327 357 15 2 355 351 346 342 339 334 330 330 328 325 323 322 320 317 316 314 314
331 314 303 320 346 340 337 339 316 307 312 317 317 322 321 313 305 295 275 252 238 230 220 216 226 232 229 219 214 212 208 199 191 185 178 172 168 164 158 153 150 149 146 142 139 134 126 119 112 101 90 79 65 46 29 10 354 340 334 333 329 322 316 312 310 319 330 330 330 333 335 336 335 334 333 333 331 327 324 322 321 318 316 315 315
28 18 344 336 325 313 311 314 309 306 309 307 305 305 306 301 295 290 281 265 249 239 229 217 216 223 226 220 211 206 202 198 192 186 181 179 175 168 163 162 160 158 154 151 148 140 131 126 120 106 91 78 62 45 28 7 353 347 341 336 327 318 310 303 302 310 321 326 328 331 332 332 334 335 335 333 330 327 325 323 322 320 318 316 316
8 5 350 337 328 321 316 314 312 310 308 303 298 296 296 294 289 285 282 276 264 251 238 222 213 215 218 214 205 199 196 195 191 186 183 181 177 172 171 173 173 169 166 166 166 158 146 142 141 132 123 111 65 36 20 359 350 346 337 327 317 309 299 292 300 316 327 330 330 328 328 331 334 334 333 333 331 328 325 322 320 319 318 317 317
338 343 343 340 336 332 330 332 332 326 316 308 304 302 298 290 282 278 277 272 263 251 236 222 214 211 207 200 193 190 190 189 186 183 180 177 174 175 178 177 174 171 171 172 174 170 163 158 160 164 167 174 182 190 269 323 322 318 316 314 305 286 270 268 280 314 328 329 328 328 329 331 332 333 333 333 331 328 325 322 320 318 318 318 316
312 319 322 322 320 318 319 322 325 322 320 318 315 310 306 299 288 279 271 263 255 244 232 222 217 216 210 199 189 186 186 183 178 177 178 177 178 181 181 177 174 174 177 179 180 178 176 180 184 189 194 197 199 200 208 246 294 299 299 299 282 250 234 234 275 314 323 326 327 328 329 330 332 335 337 336 335 331 327 325 322 321 320 320 318
294 301 304 304 307 311 313 315 317 317 319 319 318 315 314 310 303 293 279 261 247 235 227 222 221 221 219 209 196 188 186 183 179 178 180 181 182 182 180 178 178 181 185 190 192 190 189 194 198 199 203 205 207 213 221 246 279 282 280 284 268 241 222 220 285 309 321 328 327 327 330 332 333 337 339 338 336 333 329 325 324 322 320 319 319
294 296 298 298 299 301 301 302 305 307 310 312 313 314 317 318 316 315 308 274 243 229 225 221 217 213 211 204 194 187 187 186 184 183 183 183 184 184 185 189 192 192 192 196 201 202 203 205 207 209 212 214 221 248 269 282 285 274 268 284 269 236 214 237 305 306 327 339 328 324 332 335 333 336 340 340 337 334 330 325 321 320 318 317 317
291 290 288 287 287 288 286 287 289 292 295 301 306 310 315 318 317 316 315 297 257 231 219 214 209 203 197 195 193 191 190 188 186 187 188 190 191 194 199 202 202 199 197 199 204 208 211 214 215 217 223 231 253 277 287 291 285 269 272 292 280 242 238 292 294 282 330 340 326 316 325 330 329 333 338 339 337 335 331 326 323 319 317 317 317
283 280 277 277 279 278 276 276 276 276 277 280 284 288 294 301 304 305 309 302 268 233 214 210 207 201 195 197 198 196 191 188 188 190 195 198 202 205 207 207 207 207 206 205 206 210 213 217 223 228 236 254 278 291 293 292 285 276 280 298 294 264 272 293 286 274 310 329 320 313 317 321 322 328 335 338 340 336 330 326 325 321 317 316 316